Location: Cabeza de los Veneras
(40.2000°N, 5.2000°W)
Time: 01:59:07
(UTC+00:00)

NOSS 3-1 (A) - Pass Details

Date: 18 April 2024
Orbit: 660 x 1550 km, 63.4° (Epoch: 15 May)

Event Time Altitude Azimuth Distance (km) Brightness Sun altitude
Rises 19:41:23 0° 201° (SSW) 2,993 6.1 -7.8°
Reaches altitude 10° 19:43:35 10° 198° (SSW) 2,117 5.3 -8.1°
Maximum altitude 19:48:14 59° 119° (ESE) 849 3.0 -9.0°
Drops below altitude 10° 19:53:40 10° 40° (NE) 2,466 5.5 -9.9°
Sets 19:56:25 0° 38° (NE) 3,536 6.3 -10.4°
